EW9119 Weather Reports


time (UTC)temp
C
wind
direction
speed
KPH
gust
KPH
rain 1hr
cm
rain 24hr
cm
rain mn
cm
humidity
%
barometer
mb
20260506044527 18 153 0.0 0.0 0.00 0.00 0.00 61 1011.2
20260506043020 18 67 0.0 0.0 0.00 0.00 0.00 60 1011.1
20260506041520 18 144 0.0 0.0 0.00 0.00 0.00 60 1011.3
20260506040038 18 140 0.0 0.0 0.00 0.00 0.00 60 1011.1
20260506034517 18 102 0.0 0.0 0.00 0.00 0.00 59 1011.0
20260506033016 18 103 0.0 0.0 0.00 0.00 0.00 58 1011.0
20260506031530 18 32 0.0 0.0 0.00 0.00 0.00 59 1011.0
20260506030015 18 14 0.0 0.0 0.00 0.00 0.00 59 1011.2
20260506024519 18 136 0.0 0.0 0.00 0.00 0.00 59 1011.3
20260506023014 18 143 0.0 0.0 0.00 0.00 0.00 58 1011.4
20260506021514 18 144 0.0 0.0 0.00 0.00 0.00 57 1011.4
20260506020017 19 144 0.0 0.0 0.00 0.00 0.00 55 1011.5
20260506014514 19 145 0.0 0.0 0.00 0.00 0.00 54 1011.4
20260506013011 20 146 0.0 0.0 0.00 0.00 0.00 53 1011.2
20260506011512 20 146 0.0 0.0 0.00 0.00 0.00 51 1011.2
20260506010013 21 146 0.0 0.0 0.00 0.00 0.00 49 1011.0
20260506004521 21 146 0.0 0.0 0.00 0.00 0.00 48 1011.0
20260506003013 21 108 0.0 0.0 0.00 0.00 0.00 46 1010.8
20260506001510 22 283 0.0 0.0 0.00 0.00 0.00 45 1010.7
20260506000009 22 263 0.0 0.0 0.00 0.00 0.00 44 1010.7
20260505234509 22 89 0.0 0.0 0.00 0.00 0.00 44 1010.4
20260505233008 23 136 0.0 3.2 0.00 0.00 0.00 43 1010.3
20260505231508 23 88 0.0 0.0 0.00 0.00 0.00 43 1010.3
20260505230009 23 347 0.0 1.6 0.00 0.00 0.00 42 1010.1
20260505224506 24 141 0.0 3.2 0.00 0.00 0.00 41 1010.2
20260505223005 24 117 0.0 0.0 0.00 0.00 0.00 41 1010.2
20260505221507 25 325 0.0 1.6 0.00 0.00 0.00 40 1010.5
20260505220005 25 84 0.0 3.2 0.00 0.00 0.00 41 1010.6
20260505214501 25 98 0.0 0.0 0.00 0.00 0.00 40 1010.6
20260505213001 25 71 0.0 0.0 0.00 0.00 0.00 39 1010.6
20260505211611 25 107 0.0 0.0 0.00 0.00 0.00 40 1010.7
20260505210103 25 50 0.0 0.0 0.00 0.00 0.00 38 1010.8
20260505204602 25 198 0.0 0.0 0.00 0.00 0.00 37 1010.8
20260505203059 25 82 0.0 0.0 0.00 0.00 0.00 38 1010.8
20260505201600 25 150 0.0 0.0 0.00 0.00 0.00 38 1010.9
20260505200055 25 17 0.0 0.0 0.00 0.00 0.00 37 1011.0
20260505194607 25 107 0.0 0.0 0.00 0.00 0.00 38 1011.3
20260505193051 25 346 0.0 0.0 0.00 0.00 0.00 38 1011.5
20260505191550 25 115 0.0 0.0 0.00 0.00 0.00 38 1011.8
20260505190048 26 137 0.0 0.0 0.00 0.00 0.00 38 1011.9
20260505184547 26 324 0.0 0.0 0.00 0.00 0.00 38 1012.2
20260505183047 26 44 0.0 0.0 0.00 0.00 0.00 40 1012.5
20260505181552 25 9 0.0 0.0 0.00 0.00 0.00 39 1012.5
20260505180045 25 160 0.0 0.0 0.00 0.00 0.00 40 1012.5
20260505174553 26 316 0.0 0.0 0.00 0.00 0.00 40 1012.7
20260505173044 26 302 0.0 0.0 0.00 0.00 0.00 42 1012.9
20260505171543 26 105 0.0 0.0 0.00 0.00 0.00 40 1013.0
20260505170041 26 86 0.0 0.0 0.00 0.00 0.00 40 1013.2
20260505164547 25 277 0.0 0.0 0.00 0.00 0.00 43 1013.3
20260505163049 25 46 0.0 1.6 0.00 0.00 0.00 42 1013.4
20260505161538 25 321 0.0 0.0 0.00 0.00 0.00 43 1013.6
20260505153032 24 360 0.0 0.0 0.00 0.00 0.00 52 1014.0
20260505151527 23 90 0.0 0.0 0.00 0.00 0.00 50 1014.0
20260505130112 17 308 0.0 0.0 0.00 0.00 0.00 63 1014.3
20260505124600 16 73 0.0 0.0 0.00 0.00 0.00 62 1014.1
20260505123051 15 298 0.0 0.0 0.00 0.00 0.00 52 1013.9
20260505121552 13 336 0.0 0.0 0.00 0.00 0.00 34 1013.9
20260505120106 12 331 0.0 0.0 0.00 0.00 0.00 26 1013.9
20260505114548 12 280 0.0 0.0 0.00 0.00 0.00 29 1013.7
20260505113051 12 332 0.0 0.0 0.00 0.00 0.00 35 1013.6
20260505111542 11 335 0.0 0.0 0.00 0.00 0.00 41 1013.4
20260505101534 12 324 0.0 0.0 0.00 0.00 0.00 54 1013.3
20260505100034 12 20 0.0 0.0 0.00 0.00 0.00 55 1013.1
20260505094534 12 78 0.0 0.0 0.00 0.00 0.00 58 1013.1
20260505093029 12 78 0.0 0.0 0.00 0.00 0.00 59 1013.1
20260505091528 12 78 0.0 0.0 0.00 0.00 0.00 60 1013.1
20260505090025 12 76 0.0 0.0 0.00 0.00 0.00 62 1013.0
20260505084526 13 76 0.0 0.0 0.00 0.00 0.00 62 1012.8
20260505083022 13 76 0.0 0.0 0.00 0.00 0.00 63 1012.8
20260505081529 13 73 0.0 0.0 0.00 0.00 0.00 64 1012.4
20260505080020 13 73 0.0 0.0 0.00 0.00 0.00 64 1012.5
20260505074516 13 78 0.0 0.0 0.00 0.00 0.00 64 1012.4
20260505073014 13 122 0.0 0.0 0.00 0.00 0.00 63 1012.3
20260505071524 14 119 0.0 0.0 0.00 0.00 0.00 62 1012.2
20260505070011 14 119 0.0 0.0 0.00 0.00 0.00 61 1012.1
20260505064519 15 119 0.0 0.0 0.00 0.00 0.00 60 1012.1
20260505063012 15 119 0.0 0.0 0.00 0.00 0.00 58 1012.1
20260505061509 15 119 0.0 0.0 0.00 0.00 0.00 57 1012.3
20260505060002 15 121 0.0 0.0 0.00 0.00 0.00 55 1012.2
20260505054502 15 26 0.0 0.0 0.00 0.00 0.00 54 1012.1
20260505053001 16 132 0.0 0.0 0.00 0.00 0.00 54 1012.2
20260505051600 16 113 0.0 0.0 0.00 0.00 0.00 55 1012.2